K0VSC-1 Weather Reports


time (UTC)temp
F
wind
direction
speed
knots
gust
knots
rain 1hr
in
rain 24hr
in
rain mn
in
humidity
%
barometer
mb
20260504050309 58 209 8.7 16.5 0.00 0.00 0.00 39 998.3
20260504045809 58 225 7.8 13.9 0.00 0.00 0.00 39 998.3
20260504045309 58 213 7.8 13.9 0.00 0.00 0.00 39 998.5
20260504044809 58 229 7.8 13.9 0.00 0.00 0.00 39 998.6
20260504044309 58 205 7.8 13.9 0.00 0.00 0.00 39 998.8
20260504043809 58 234 7.8 14.8 0.00 0.00 0.00 39 998.9
20260504043309 58 246 7.0 13.9 0.00 0.00 0.00 40 998.9
20260504042809 58 225 7.0 15.6 0.00 0.00 0.00 40 999.1
20260504042309 58 230 7.0 14.8 0.00 0.00 0.00 40 999.2
20260504041809 57 232 6.1 12.2 0.00 0.00 0.00 42 999.3
20260504041309 57 233 6.1 11.3 0.00 0.00 0.00 41 999.5
20260504040809 57 244 7.0 11.3 0.00 0.00 0.00 41 999.7
20260504040309 57 231 7.0 11.3 0.00 0.00 0.00 41 999.8
20260504035809 58 242 7.0 14.8 0.00 0.00 0.00 40 999.9
20260504035309 58 210 7.0 11.3 0.00 0.00 0.00 41 1000.0
20260504034809 58 221 6.1 13.0 0.00 0.00 0.00 41 1000.2
20260504034309 58 232 6.1 10.4 0.00 0.00 0.00 41 1000.3
20260504033809 58 213 6.1 9.6 0.00 0.00 0.00 40 1000.5
20260504033309 58 237 6.1 10.4 0.00 0.00 0.00 41 1000.6
20260504032809 58 197 6.1 10.4 0.00 0.00 0.00 40 1000.7
20260504032309 58 220 6.1 10.4 0.00 0.00 0.00 40 1000.9
20260504031809 58 214 5.2 11.3 0.00 0.00 0.00 40 1001.0
20260504031309 58 199 5.2 7.8 0.00 0.00 0.00 40 1001.2
20260504030809 59 221 5.2 8.7 0.00 0.00 0.00 39 1001.2
20260504030309 59 249 5.2 8.7 0.00 0.00 0.00 39 1001.5
20260504025809 59 225 5.2 9.6 0.00 0.00 0.00 38 1001.4
20260504025309 59 241 4.3 8.7 0.00 0.00 0.00 39 1001.6
20260504024809 59 215 4.3 7.8 0.00 0.00 0.00 38 1001.7
20260504024309 59 225 3.5 7.8 0.00 0.00 0.00 39 1001.7
20260504023809 59 207 4.3 7.8 0.00 0.00 0.00 38 1001.8
20260504023309 59 232 4.3 7.8 0.00 0.00 0.00 38 1001.9
20260504022809 60 235 4.3 7.0 0.00 0.00 0.00 37 1002.0
20260504022309 60 241 4.3 7.8 0.00 0.00 0.00 36 1002.0
20260504021809 61 223 5.2 7.8 0.00 0.00 0.00 35 1002.1
20260504021309 61 228 5.2 8.7 0.00 0.00 0.00 34 1002.1
20260504020809 61 246 4.3 10.4 0.00 0.00 0.00 34 1002.2
20260504020309 61 240 4.3 9.6 0.00 0.00 0.00 35 1002.2
20260504015809 61 232 3.5 7.0 0.00 0.00 0.00 35 1002.4
20260504015309 61 240 3.5 6.1 0.00 0.00 0.00 35 1002.4
20260504014809 61 240 3.5 7.0 0.00 0.00 0.00 35 1002.5
20260504014309 61 233 2.6 5.2 0.00 0.00 0.00 35 1002.5
20260504013809 62 234 2.6 4.3 0.00 0.00 0.00 35 1002.6
20260504013309 62 249 2.6 4.3 0.00 0.00 0.00 36 1002.6
20260504012809 62 246 2.6 3.5 0.00 0.00 0.00 36 1002.7
20260504012309 63 250 3.5 7.0 0.00 0.00 0.00 35 1002.8
20260504011809 63 243 3.5 6.1 0.00 0.00 0.00 34 1002.8
20260504011309 63 244 3.5 6.1 0.00 0.00 0.00 34 1002.8
20260504010809 63 248 3.5 6.1 0.00 0.00 0.00 34 1002.8
20260504010309 64 252 3.5 7.8 0.00 0.00 0.00 34 1002.8
20260504005809 64 260 3.5 6.1 0.00 0.00 0.00 33 1003.0
20260504005309 64 248 3.5 7.8 0.00 0.00 0.00 32 1002.9
20260504004809 64 253 4.3 6.1 0.00 0.00 0.00 32 1003.1
20260504004309 65 263 6.1 10.4 0.00 0.00 0.00 31 1003.1
20260504003809 65 255 6.1 11.3 0.00 0.00 0.00 30 1003.1
20260504003309 65 251 6.1 9.6 0.00 0.00 0.00 31 1003.1
20260504002809 65 266 6.1 9.6 0.00 0.00 0.00 31 1003.1
20260504002309 65 273 6.1 9.6 0.00 0.00 0.00 30 1003.2
20260504001810 66 265 6.1 8.7 0.00 0.00 0.00 30 1003.2
20260504001310 66 257 6.1 8.7 0.00 0.00 0.00 31 1003.2
20260504000810 66 271 5.2 9.6 0.00 0.00 0.00 31 1003.4
20260504000310 66 273 5.2 8.7 0.00 0.00 0.00 30 1003.4
20260503235810 66 286 5.2 10.4 0.00 0.00 0.00 28 1003.4
20260503235310 66 271 4.3 7.8 0.00 0.00 0.00 29 1003.4
20260503234810 66 281 4.3 7.8 0.00 0.00 0.00 30 1003.5
20260503234310 66 271 5.2 10.4 0.00 0.00 0.00 28 1003.5
20260503233810 66 277 6.1 9.6 0.00 0.00 0.00 29 1003.6
20260503233310 66 294 6.1 10.4 0.00 0.00 0.00 29 1003.6
20260503232810 66 278 6.1 10.4 0.00 0.00 0.00 29 1003.6
20260503232310 66 250 4.3 10.4 0.00 0.00 0.00 30 1003.7
20260503231810 67 257 1.7 7.0 0.00 0.00 0.00 29 1003.7
20260503231310 67 300 1.7 3.5 0.00 0.00 0.00 28 1003.8
20260503230810 67 294 2.6 6.1 0.00 0.00 0.00 29 1003.8
20260503230310 67 294 3.5 6.1 0.00 0.00 0.00 28 1004.0
20260503225810 67 269 3.5 6.1 0.00 0.00 0.00 28 1003.9
20260503225310 67 288 4.3 11.3 0.00 0.00 0.00 26 1004.0
20260503224810 67 270 5.2 12.2 0.00 0.00 0.00 27 1003.9
20260503224310 67 275 5.2 10.4 0.00 0.00 0.00 29 1004.1
20260503223810 66 275 3.5 8.7 0.00 0.00 0.00 29 1004.2
20260503223310 67 284 2.6 6.1 0.00 0.00 0.00 27 1004.2
20260503222810 67 290 5.2 10.4 0.00 0.00 0.00 26 1004.2
20260503222310 67 253 6.1 10.4 0.00 0.00 0.00 27 1004.2
20260503221810 67 252 3.5 13.0 0.00 0.00 0.00 29 1004.3
20260503221310 67 292 3.5 7.0 0.00 0.00 0.00 27 1004.3
20260503220810 67 307 2.6 6.1 0.00 0.00 0.00 26 1004.3
20260503220310 67 283 2.6 7.0 0.00 0.00 0.00 28 1004.3
20260503215810 66 259 2.6 8.7 0.00 0.00 0.00 28 1004.5
20260503215310 66 315 3.5 8.7 0.00 0.00 0.00 27 1004.6
20260503214810 66 262 3.5 9.6 0.00 0.00 0.00 28 1004.7
20260503214310 66 299 3.5 8.7 0.00 0.00 0.00 27 1004.8
20260503213810 66 290 2.6 8.7 0.00 0.00 0.00 27 1004.8
20260503213310 66 302 4.3 7.8 0.00 0.00 0.00 29 1004.8
20260503212810 66 282 7.0 13.0 0.00 0.00 0.00 28 1004.9
20260503212310 66 275 5.2 13.9 0.00 0.00 0.00 27 1005.0
20260503211810 66 254 3.5 10.4 0.00 0.00 0.00 27 1005.0
20260503211310 66 304 4.3 10.4 0.00 0.00 0.00 27 1005.0
20260503210810 66 312 4.3 8.7 0.00 0.00 0.00 27 1005.2
20260503210310 66 275 3.5 9.6 0.00 0.00 0.00 29 1005.1
20260503205810 66 304 4.3 7.8 0.00 0.00 0.00 29 1005.3
20260503205310 66 288 6.1 11.3 0.00 0.00 0.00 28 1005.1
20260503204810 66 261 4.3 13.0 0.00 0.00 0.00 29 1005.2
20260503204310 66 277 3.5 8.7 0.00 0.00 0.00 28 1005.4
20260503203810 66 286 4.3 9.6 0.00 0.00 0.00 29 1005.5
20260503203310 65 288 3.5 12.2 0.00 0.00 0.00 30 1005.6
20260503202810 65 284 4.3 9.6 0.00 0.00 0.00 28 1005.6
20260503202310 66 286 3.5 9.6 0.00 0.00 0.00 27 1005.7
20260503201810 66 286 3.5 7.8 0.00 0.00 0.00 28 1005.7
20260503201310 65 296 3.5 8.7 0.00 0.00 0.00 28 1005.8
20260503200810 65 300 3.5 8.7 0.00 0.00 0.00 27 1005.9
20260503200310 65 298 3.5 10.4 0.00 0.00 0.00 28 1005.9
20260503195810 65 285 3.5 9.6 0.00 0.00 0.00 29 1005.9
20260503195310 65 280 2.6 6.1 0.00 0.00 0.00 28 1005.9
20260503194810 65 310 5.2 7.8 0.00 0.00 0.00 28 1006.1
20260503194310 65 332 5.2 10.4 0.00 0.00 0.00 28 1006.1
20260503193810 65 321 3.5 10.4 0.00 0.00 0.00 28 1006.1
20260503193310 64 327 3.5 7.8 0.00 0.00 0.00 29 1006.0
20260503192810 64 296 3.5 7.0 0.00 0.00 0.00 29 1006.1
20260503192310 64 303 3.5 7.8 0.00 0.00 0.00 28 1006.1
20260503191810 64 306 3.5 7.8 0.00 0.00 0.00 27 1006.2
20260503191310 64 309 4.3 13.0 0.00 0.00 0.00 29 1006.1
20260503190810 64 279 4.3 10.4 0.00 0.00 0.00 28 1006.1
20260503190310 63 338 4.3 9.6 0.00 0.00 0.00 28 1006.2
20260503185810 63 327 5.2 9.6 0.00 0.00 0.00 28 1006.3
20260503185310 63 319 4.3 13.9 0.00 0.00 0.00 28 1006.5
20260503184810 63 321 4.3 7.8 0.00 0.00 0.00 30 1006.5
20260503184310 63 335 4.3 10.4 0.00 0.00 0.00 28 1006.7
20260503183810 63 5 3.5 9.6 0.00 0.00 0.00 28 1006.8
20260503183310 63 285 4.3 4.3 0.00 0.00 0.00 28 1006.8
20260503182810 63 313 6.1 10.4 0.00 0.00 0.00 28 1007.0
20260503182310 63 323 6.1 13.0 0.00 0.00 0.00 29 1007.0
20260503181810 62 346 5.2 11.3 0.00 0.00 0.00 28 1007.2
20260503181310 62 344 4.3 10.4 0.00 0.00 0.00 30 1007.2
20260503180810 62 323 5.2 9.6 0.00 0.00 0.00 28 1007.3
20260503180310 62 329 7.8 12.2 0.00 0.00 0.00 29 1007.4
20260503175810 62 324 9.6 14.8 0.00 0.00 0.00 27 1007.3
20260503175310 62 346 7.8 16.5 0.00 0.00 0.00 28 1007.3
20260503174810 61 345 6.1 12.2 0.00 0.00 0.00 28 1007.3
20260503174310 61 308 7.0 10.4 0.00 0.00 0.00 29 1007.2
20260503173810 61 355 7.0 14.8 0.00 0.00 0.00 27 1007.4
20260503173310 61 339 7.0 13.9 0.00 0.00 0.00 27 1007.5
20260503172810 61 320 7.8 13.9 0.00 0.00 0.00 28 1007.5
20260503172310 61 338 7.0 13.0 0.00 0.00 0.00 27 1007.5
20260503171810 61 315 7.0 12.2 0.00 0.00 0.00 28 1007.5
20260503171310 61 350 6.1 13.0 0.00 0.00 0.00 27 1007.8
20260503170810 60 315 6.1 10.4 0.00 0.00 0.00 28 1007.8
20260503170310 61 328 7.0 13.0 0.00 0.00 0.00 29 1007.8
20260503150810 57 334 7.8 13.0 0.00 0.00 0.00 48 1007.7
20260503150310 57 306 8.7 14.8 0.00 0.00 0.00 49 1007.6
20260503140311 55 337 5.2 9.6 0.00 0.00 0.00 54 1007.4
20260503131311 51 5 6.1 9.6 0.00 0.00 0.00 61 1007.2
20260503130811 51 346 6.1 9.6 0.00 0.00 0.00 62 1007.2
20260503130311 51 348 5.2 10.4 0.00 0.00 0.00 62 1007.2
20260503110811 46 336 7.0 13.9 0.00 0.00 0.00 67 1005.2
20260503110311 46 330 6.1 11.3 0.00 0.00 0.00 67 1005.2
20260503090332 50 277 2.6 0.0 0.00 0.30 0.00 62 1004.5
20260503090311 50 277 2.6 5.2 0.00 0.00 0.00 62 1004.5
20260503081311 53 230 7.0 11.3 0.00 0.00 0.00 57 1004.2
20260503080811 53 263 7.0 13.0 0.00 0.00 0.00 57 1004.2
20260503080311 53 229 7.0 12.2 0.00 0.00 0.00 56 1004.1
20260503072811 53 242 5.2 8.7 0.00 0.00 0.00 55 1004.5
20260503072311 54 246 4.3 8.7 0.00 0.00 0.00 55 1004.5
20260503071811 54 240 4.3 7.8 0.00 0.00 0.00 55 1004.5
20260503071311 54 225 5.2 10.4 0.00 0.00 0.00 55 1004.5
20260503070811 54 242 6.1 8.7 0.00 0.00 0.00 54 1004.6
20260503070311 54 254 7.0 13.0 0.00 0.00 0.00 54 1004.7